NOAA 16 DEB, 41300

Orbit data source: Space-Track

NOAA 16 DEB, 41300 is space debris in SSO originally from a launch on Thu, 21 Sep 2000 UTC launched from the Air Force Western Test Range (AFWTR). Debris objects in space refer to the collection of defunct objects orbiting the Earth. Examples of debris include non-operational satellites, rocket bodies, and fragments generated from explosions, collisions, or faulty payload assembly.

Loading next visibility...
Identifier
41300, 2000-055HC
Orbit
SSO
Country
Flag of USUS
Related business
Manufacturer
Unknown
Mission
Spacecraft
Bus & Motor
Unknown
Mass
Unknown
Launch date (UTC)
2000-09-21 (25 years ago)
Launch vehicle
Unknown
Launch site
Air Force Western Test Range (AFWTR)
Object type
Payload
Rocket body
Debris
Shape & HBR
Unknown shape, 0.1 m
Radar Cross Section
Small (<0.1 m²)

Expand to show TLE details & history
Last TLE update: 10 hours ago

TLE from 10 hours ago
0 NOAA 16 DEB
1 41300U 00055HC  25292.88342373  .00004937  00000-0  25740-2 0  9999
2 41300  98.7182 320.1183 0041902 202.4580 157.4760 14.14494260503418
Epoch: 2025-10-19T21:12Z
TLE epoch observation values (Epoch: 2025-10-19T21:12:07.810Z)
Latitude
-0.00003°
Longitude
-26.50793°
Altitude
874.918 km
Speed
7.401 km/s
True Right ascension
21h 20m 28s
True Declination
0° 00' 00"
Sunlit
Object was in daylight at epoch
Visualization orbit readout
Latitude
Unknown
Longitude
Unknown
Altitude
Unknown
Speed
Unknown
Apparent Right ascension
Unknown
Apparent Declination
Unknown
Sunlit
N/A
Visualization observer readout
Local Sidereal Time
01:38:18
Azimuth
Unknown
Elevation
Unknown
Doppler factor
Unknown
Orbital elements
Apogee altitude
871.45 km
Perigee altitude
810.949 km
Semi-major axis
7,219.336 km
Eccentricity
0.00419
Inclination
98.7182°
RAAN
320.1183°
Arg. of periapsis
202.458°
True anomaly
157.65905°
Mean anomaly
157.476°
Eccentric anomaly
157.56761°
Mean motion
3.53832 °/min
Orbital period
101.74 mins
BSTAR
0.002574
Loading maneuver chart data...
Computing Atmospheric mass density...

Documentation

Showing up to 5 results
|